GEFSNE_500_meanwind_120.txt.gz
Wind_Speed
31 31 31 31 31 31 31 31 31 32 31 31 32 32 33 33 32 32 32 32 32 32 32 32 33 34 34 35 35 34 35 36 37 37 37 37 37 37
30 30 31 31 31 31 31 31 32 31 31 30 30 31 32 32 32 31 31 32 31 33 32 32 32 34 34 34 33 33 33 34 35 35 35 34 34 34
30 30 30 31 31 31 31 30 30 31 30 29 29 30 31 30 30 30 30 31 31 30 31 31 31 32 33 33 32 32 32 32 32 32 32 32 31 31
31 30 30 30 30 29 28 28 28 28 29 29 29 29 29 29 29 30 29 28 28 28 29 30 31 31 30 30 30 30 30 30 30 29 29 29 28 28
31 30 30 29 28 27 27 26 26 27 27 27 27 28 28 28 28 27 27 27 27 27 28 28 29 30 29 28 27 26 26 25 25 25 24 25 25 25
30 30 29 29 28 27 27 26 26 26 26 26 26 27 27 26 26 25 26 26 25 26 26 26 26 26 25 24 23 23 22 22 22 22 23 23 23 23
28 28 27 27 26 26 26 25 24 24 24 24 24 24 24 25 24 24 24 24 24 25 24 24 24 23 21 20 19 19 20 20 21 22 22 22 21 21
26 25 24 24 23 23 23 22 21 21 22 22 21 21 22 22 21 22 22 22 22 22 22 21 20 18 17 16 17 17 18 19 20 20 20 19 18 19
22 22 21 21 21 21 21 20 19 19 19 19 19 19 19 19 19 19 19 20 20 19 18 17 15 15 14 14 15 16 16 17 17 17 16 17 17 17
20 19 19 18 19 18 18 17 16 15 15 16 16 16 16 16 16 15 15 15 16 15 14 12 12 12 12 13 14 14 14 15 15 15 15 15 16 16
17 17 16 15 15 15 15 14 14 14 13 13 13 13 13 13 13 12 12 12 12 12 11 10 10 10 11 11 12 12 12 12 12 13 14 15 15 16
16 15 15 14 13 13 13 12 12 12 12 12 12 12 11 11 11 11 10 10 9 9 9 8 9 9 9 9 9 10 10 11 12 13 14 15 16 17
13 13 13 12 12 11 11 10 9 10 11 10 10 9 9 8 9 9 9 8 7 7 6 6 6 6 7 7 7 8 10 11 12 13 14 16 17 18
10 10 10 10 10 10 9 9 9 8 8 7 7 6 6 6 6 5 5 4 4 4 3 3 4 4 5 6 7 9 10 11 12 14 16 17 18 20
8 9 9 9 9 9 8 8 8 8 8 7 6 5 5 5 4 4 4 3 2 2 2 2 2 4 5 7 8 9 11 12 14 15 17 19 20 22
7 9 9 8 8 8 8 7 8 8 7 7 7 6 5 5 5 5 4 3 2 1 0 1 3 4 5 7 9 11 12 14 16 17 19 20 22 23
7 9 9 9 9 9 9 9 9 9 9 8 7 7 7 7 6 5 4 4 3 2 2 2 3 4 6 9 10 12 14 15 17 19 20 22 23 25
9 9 10 10 11 11 11 11 11 11 10 9 9 8 8 7 7 6 6 5 4 3 3 4 5 6 8 10 12 14 15 17 18 20 22 23 26 28
10 11 12 12 12 13 13 13 13 12 11 11 10 10 9 9 8 7 6 5 4 4 4 5 7 8 10 12 14 16 17 19 20 22 24 25 27 29
12 12 13 13 14 14 15 15 14 13 13 12 11 10 10 9 8 6 5 5 5 5 6 8 9 11 13 14 16 17 19 20 22 24 26 28 30 32
13 12 13 14 15 15 15 15 15 14 13 12 11 10 9 7 6 6 5 5 5 6 8 10 11 13 14 15 17 19 21 23 25 27 29 31 32 34
13 14 14 15 15 16 15 15 14 13 12 11 10 8 7 6 6 5 5 6 7 8 10 11 13 14 16 17 19 21 22 25 27 29 31 33 35 37
14 15 15 15 16 16 15 14 13 12 11 10 9 8 6 5 5 5 6 7 8 10 11 13 14 16 18 20 22 23 25 27 29 31 33 36 38 40

GEFSNE_500_meanwind_126.txt.gz
Wind_Speed
27 27 27 28 28 28 28 28 27 27 27 27 28 29 30 30 31 30 30 29 29 29 28 28 28 28 28 28 29 29 29 30 31 31 31 31 30 30
28 28 28 28 29 29 29 29 29 28 28 28 28 29 29 30 30 30 30 30 29 28 27 27 26 26 26 28 29 28 27 27 27 28 28 28 28 28
30 30 29 29 29 29 29 29 29 28 28 27 27 27 28 28 29 29 28 28 27 26 25 24 24 24 25 26 26 26 25 25 25 24 24 23 23 23
31 30 29 30 30 30 30 30 29 29 29 28 27 26 26 27 28 27 26 26 25 24 23 22 22 22 23 23 24 23 23 23 21 20 20 20 20 20
30 30 30 29 29 29 29 30 30 29 29 28 28 27 26 25 25 24 25 24 24 23 22 22 22 21 21 21 20 20 19 19 18 17 17 18 19 19
30 29 30 30 29 29 28 29 29 28 27 27 26 26 25 23 22 22 22 22 22 21 21 21 20 19 18 17 17 16 16 16 15 14 14 16 15 16
28 28 28 28 28 28 28 27 27 26 26 25 24 23 21 20 20 20 20 20 19 19 18 18 17 16 14 14 15 15 14 13 12 12 13 13 14 14
26 26 27 27 27 26 26 25 25 24 24 23 22 21 19 19 19 18 17 16 15 15 15 15 15 14 14 14 13 12 12 11 11 11 11 12 12 14
24 24 24 24 25 24 24 23 22 21 21 20 20 19 18 18 17 16 14 14 12 12 12 11 12 12 12 11 11 10 10 10 10 10 11 11 12 13
22 22 22 21 21 21 20 20 19 18 17 17 17 17 16 15 14 13 12 11 10 10 11 11 10 10 10 9 9 8 9 9 10 10 11 12 13 13
19 18 18 18 18 17 17 17 16 16 16 16 15 14 13 13 12 11 11 10 10 10 9 9 9 9 9 8 7 8 8 9 10 10 11 12 13 14
15 15 14 14 14 14 13 14 14 14 14 14 13 13 12 11 11 11 11 10 10 9 8 8 8 8 7 6 6 7 8 9 10 11 12 13 14 14
13 13 13 12 12 12 12 12 11 12 11 11 11 11 10 10 9 9 9 9 9 8 8 7 6 6 5 6 6 7 8 9 9 10 12 13 14 15
11 11 10 11 11 11 11 11 10 10 10 10 10 9 9 9 8 8 8 7 6 6 6 5 5 4 5 5 6 7 7 8 9 11 12 14 15 17
9 9 9 8 9 10 10 10 10 10 10 9 9 9 8 7 7 6 6 5 4 4 3 3 3 3 4 4 5 6 7 9 11 12 13 15 16 18
7 7 8 8 8 9 11 12 11 10 9 9 8 7 7 6 6 5 5 4 4 3 3 2 3 3 3 4 5 7 9 10 11 12 14 16 18 20
5 6 6 7 7 9 10 10 10 9 9 9 9 8 7 6 6 6 5 4 4 3 2 2 1 2 3 5 7 8 9 11 13 14 16 18 21 23
4 5 6 7 8 9 9 10 10 9 9 9 9 8 8 7 7 6 5 4 3 2 1 0 1 3 4 6 8 9 11 13 14 16 18 20 22 24
6 6 7 7 8 9 9 10 10 11 10 10 9 9 9 8 7 6 5 4 3 2 1 1 3 4 6 7 9 11 13 14 16 18 20 22 24 26
7 7 8 9 10 10 11 11 11 11 11 10 10 10 9 8 7 7 5 4 3 2 2 3 4 6 8 10 11 13 15 16 18 19 21 24 26 28
9 10 11 11 11 11 12 12 12 11 11 11 10 10 9 8 7 5 4 3 2 2 3 5 7 8 10 11 13 14 16 18 20 22 24 26 28 30
11 11 12 11 12 12 12 12 13 12 11 11 10 9 8 6 5 4 3 2 2 3 5 7 8 10 12 13 14 16 17 19 21 24 26 29 31 33
11 12 12 12 12 12 12 13 12 11 10 9 8 7 6 5 4 3 2 2 4 6 7 9 10 12 14 15 17 18 19 21 23 26 28 31 33 35

GEFSNE_500_meanwind_132.txt.gz
Wind_Speed
25 25 25 26 26 26 26 25 25 25 25 25 25 25 25 26 26 26 26 27 27 27 27 27 27 27 27 27 26 26 27 28 29 30 29 28 28 27
27 27 27 27 27 27 27 27 27 26 26 26 26 26 26 26 26 26 26 26 26 27 27 27 27 26 27 26 27 27 27 27 27 27 26 27 26 25
28 28 28 29 29 28 28 28 28 28 27 27 28 27 27 27 27 26 26 27 26 26 26 26 26 26 26 26 27 26 26 25 24 24 24 24 24 24
28 28 28 29 29 29 29 29 29 29 28 27 28 28 27 27 27 26 26 26 25 25 26 25 25 25 25 25 25 24 23 22 22 23 24 24 23 24
29 29 29 29 29 29 29 29 28 28 28 28 28 28 27 27 27 26 26 25 24 24 24 24 23 23 23 23 22 22 21 21 21 21 21 22 22 21
27 28 28 28 29 29 29 28 28 27 27 27 27 27 27 27 27 25 24 24 23 23 23 22 22 21 21 21 20 20 19 19 19 19 19 19 19 18
25 26 26 26 28 29 29 28 28 27 26 25 25 26 26 26 25 23 23 22 22 21 21 20 19 19 19 19 18 18 18 18 18 17 17 17 17 17
25 25 25 26 26 26 26 26 26 26 25 24 24 24 23 23 22 22 21 20 19 19 18 18 18 17 17 17 17 17 18 18 17 17 16 16 16 17
23 24 24 24 24 24 24 24 23 23 23 22 22 22 22 21 20 20 19 19 18 17 17 16 16 16 15 15 16 16 16 16 16 16 16 16 16 16
22 22 22 23 22 22 21 22 22 21 21 20 21 21 21 20 20 19 19 18 17 16 16 15 15 15 15 15 15 14 14 14 14 14 15 15 15 16
20 20 21 21 21 20 20 20 20 20 20 19 19 19 18 18 17 17 17 16 15 15 15 15 15 14 14 14 13 12 12 12 12 12 13 14 15 16
17 17 17 18 18 18 18 19 18 18 18 18 17 17 16 16 16 16 15 15 14 14 14 14 14 13 12 11 11 11 11 11 11 12 13 14 15 15
15 14 14 14 15 15 16 17 17 16 16 16 16 16 16 15 15 14 14 13 13 13 13 12 12 12 11 11 10 10 10 10 11 12 13 14 14 14
12 12 12 12 12 12 13 14 14 14 15 15 15 15 14 14 14 13 13 12 12 12 11 11 10 10 10 10 9 9 10 10 11 12 12 12 13 15
8 9 10 10 10 10 10 11 12 13 13 13 14 14 14 13 13 12 11 11 10 10 9 9 9 9 8 8 8 9 9 10 11 11 12 13 15 16
4 5 6 7 8 9 10 11 12 13 13 13 13 13 12 12 11 11 10 9 9 8 8 8 8 7 7 7 8 9 9 9 10 11 13 14 16 17
1 2 4 5 6 8 9 10 11 12 12 12 12 12 12 11 11 10 9 8 7 7 7 6 6 6 7 7 7 8 8 9 10 12 14 15 16 18
3 3 5 5 6 7 8 8 9 11 11 11 11 12 11 10 10 9 8 7 7 6 6 6 5 5 5 6 7 8 9 10 12 14 15 17 18 20
4 5 5 5 6 6 7 7 9 9 10 11 12 11 11 10 9 8 7 6 6 5 5 4 4 4 4 6 7 9 10 12 13 15 17 18 20 22
5 6 6 5 6 6 7 8 8 9 10 11 11 10 10 9 8 8 7 6 5 5 4 4 4 5 6 7 8 10 12 14 15 17 18 20 21 23
7 7 7 7 7 8 8 9 8 9 10 10 9 9 9 8 7 6 6 5 5 4 4 4 5 6 7 9 10 12 14 16 17 18 20 21 23 25
7 7 7 7 7 7 8 8 8 9 9 9 8 8 7 7 6 5 5 4 4 4 4 5 6 8 9 11 12 14 16 17 19 20 22 24 26 27
7 7 7 7 7 7 7 7 7 8 8 7 7 7 6 6 5 5 4 4 4 5 6 7 8 10 12 13 15 16 18 19 21 23 25 27 29 31

GEFSNE_500_meanwind_138.txt.gz
Wind_Speed
27 27 28 28 29 29 30 30 29 29 29 29 29 29 30 29 29 30 30 30 30 29 29 29 29 30 30 29 30 30 30 30 30 30 30 30 30 30
28 29 29 29 29 29 29 29 30 30 30 30 30 30 31 31 31 31 31 31 31 30 30 30 29 29 29 29 29 30 30 29 29 28 29 29 30 29
30 30 30 30 30 31 31 31 31 31 30 30 31 31 31 31 31 31 31 30 30 30 30 30 29 29 29 29 29 29 28 27 27 27 28 28 28 27
30 31 31 31 31 31 31 31 31 31 31 31 31 31 31 31 31 30 30 31 30 30 29 29 28 28 27 28 28 27 26 26 26 26 27 26 26 26
30 31 31 32 32 32 31 32 32 32 31 31 31 31 31 31 31 31 30 30 30 29 28 28 27 27 26 26 26 25 24 25 25 25 25 25 25 24
30 31 31 31 32 33 33 33 32 32 32 31 30 30 30 30 30 30 30 30 28 27 26 25 25 24 24 24 24 23 24 24 24 23 24 24 24 24
29 30 29 30 31 32 32 32 32 32 31 31 30 30 30 30 29 28 28 28 27 26 25 24 24 24 24 23 23 23 23 23 23 23 23 23 22 22
27 28 29 29 29 29 30 31 31 31 31 31 30 30 29 29 27 27 26 26 26 25 24 24 23 23 23 23 23 23 22 21 21 22 22 21 21 21
26 26 27 27 27 28 28 29 29 29 30 29 29 29 28 27 26 25 25 24 24 23 23 22 22 22 22 21 21 21 21 21 21 21 20 19 19 19
24 25 26 26 26 27 26 27 27 27 27 27 27 27 27 26 25 24 23 23 23 22 22 21 21 20 20 19 19 19 20 19 19 18 18 18 17 17
23 23 24 24 24 24 25 25 25 25 25 25 25 25 25 24 23 23 22 21 20 20 20 19 19 18 18 18 18 18 18 17 17 16 16 16 16 16
20 20 20 21 21 21 21 22 22 22 23 23 22 22 22 21 21 20 20 19 18 18 18 18 18 17 16 17 17 17 16 15 14 14 14 14 15 15
16 16 16 16 17 17 18 18 18 19 19 20 20 20 20 20 19 18 17 16 16 16 15 15 15 15 16 15 15 14 13 13 13 13 14 15 15 16
13 13 13 13 13 13 14 14 14 15 15 16 16 17 17 17 17 16 16 16 15 15 14 14 14 14 13 13 12 12 12 12 13 14 15 15 16 16
11 10 10 10 9 9 10 11 11 11 12 13 14 14 15 16 16 15 15 14 14 14 13 13 13 12 11 11 11 11 11 12 13 13 14 14 14 15
7 6 6 6 6 7 8 8 9 10 11 11 12 13 14 14 15 15 14 14 13 12 12 11 11 10 9 9 9 10 10 11 12 13 13 13 14 15
3 2 2 3 3 4 5 6 7 8 8 9 11 11 12 13 13 13 13 12 11 10 9 9 9 9 9 9 9 10 11 11 12 12 13 13 15 17
3 1 0 1 1 2 2 4 5 5 7 8 9 9 10 11 12 12 11 10 10 10 9 9 9 9 9 9 10 10 10 11 12 13 13 15 16 18
3 2 2 1 1 1 1 2 3 4 5 7 7 7 8 10 10 10 9 9 9 9 8 8 8 9 9 9 10 10 11 12 13 14 15 16 18 19
4 3 3 2 2 2 2 2 3 3 4 5 6 7 8 8 9 10 9 9 8 8 8 8 8 9 9 9 10 11 12 12 13 15 17 18 19 21
5 4 3 3 3 2 2 2 2 3 4 5 5 6 6 7 8 8 8 8 8 8 8 8 9 9 9 10 10 11 12 14 15 17 19 20 21 23
4 4 4 3 2 2 2 2 2 2 3 4 5 5 6 6 7 7 8 8 8 8 8 9 9 9 10 10 11 13 14 16 18 19 21 22 24 25
4 4 3 3 3 3 1 1 1 2 3 4 5 5 6 6 6 7 7 7 8 9 9 10 10 10 11 12 14 15 17 18 20 22 23 25 27 28

GEFSNE_500_meanwind_144.txt.gz
Wind_Speed
31 31 31 31 30 30 29 29 28 29 30 30 30 30 29 29 29 29 29 29 29 29 30 30 29 29 29 29 29 29 29 29 29 28 28 27 27 28
31 31 32 31 31 30 30 29 29 29 29 30 30 30 30 30 29 29 29 29 29 30 30 30 30 30 29 29 29 29 28 28 27 27 27 26 26 27
30 30 30 31 30 30 30 29 29 29 29 29 30 30 30 30 30 30 30 29 29 29 29 30 29 30 29 29 29 28 27 26 26 26 26 26 27 26
28 28 29 29 30 30 31 30 29 29 29 29 29 29 29 29 29 29 29 29 29 29 29 29 29 29 28 28 27 26 26 26 25 24 24 25 25 25
28 28 28 29 29 29 30 30 30 30 30 29 28 29 29 29 29 29 28 29 29 28 29 29 29 29 28 27 26 24 24 24 24 24 24 24 24 24
28 28 28 28 29 29 29 30 30 30 30 29 29 28 29 28 28 28 28 28 27 27 27 27 27 27 26 26 25 25 25 25 24 23 23 23 23 23
26 27 27 28 28 28 28 29 29 29 30 29 29 29 29 29 28 28 27 27 26 26 26 26 26 27 27 27 26 25 25 24 24 24 23 23 23 24
25 26 27 28 27 27 27 27 28 28 28 29 29 29 29 28 28 28 27 27 26 26 26 26 26 26 26 26 26 25 25 25 25 24 24 23 24 24
24 25 25 25 25 26 26 26 27 27 27 27 27 27 27 28 28 28 27 27 26 25 26 26 26 25 25 25 25 25 25 24 24 24 24 24 24 24
21 22 22 23 23 24 25 25 24 24 25 26 27 27 27 27 27 27 26 26 26 25 25 24 24 24 23 23 23 23 23 23 23 23 24 24 23 23
19 19 20 20 21 22 22 23 24 24 24 25 25 26 26 26 26 26 26 26 26 25 23 23 23 22 22 22 21 21 21 21 22 22 22 21 21 20
16 17 17 17 17 18 18 19 21 22 22 22 22 23 23 24 24 23 23 23 23 23 22 22 22 21 21 21 20 20 20 19 19 20 20 19 19 19
14 14 15 14 14 14 15 16 17 18 19 19 20 20 20 21 21 21 22 21 21 21 20 19 19 18 18 18 18 18 18 18 18 18 18 18 17 17
12 12 12 12 13 13 13 14 14 15 16 17 18 18 18 18 19 19 19 20 20 19 18 18 17 17 17 17 17 17 16 17 16 16 16 16 16 16
9 9 9 9 9 9 11 11 12 12 13 14 15 15 16 17 17 18 18 18 18 18 17 17 17 17 17 17 16 16 15 15 15 15 15 15 15 15
7 7 7 6 6 6 7 8 9 10 11 12 12 13 14 14 16 17 16 17 17 17 17 17 17 17 16 16 15 15 14 14 14 14 14 15 15 15
6 5 5 4 4 4 5 6 7 7 8 10 11 12 12 13 14 15 16 16 16 16 16 16 16 16 16 15 14 14 14 14 14 14 15 15 16 16
5 5 4 3 2 2 2 3 4 5 6 8 9 10 11 12 13 14 14 14 15 15 16 15 15 15 14 14 14 14 14 15 15 15 15 16 16 17
5 4 3 3 3 3 2 2 2 3 4 5 7 8 9 11 12 13 14 14 14 14 14 14 14 14 14 14 14 14 15 15 15 16 16 16 17 17
6 5 4 3 3 3 3 2 3 3 4 5 6 7 9 10 10 11 12 13 14 14 14 14 14 14 14 14 14 15 16 16 16 17 17 18 18 19
6 5 5 5 5 4 3 3 3 4 4 5 6 8 8 9 10 10 11 12 13 13 13 14 14 14 14 15 15 16 17 17 18 18 19 20 21 21
6 6 6 6 5 4 4 3 3 4 4 5 6 7 8 8 9 9 10 11 12 13 13 14 14 15 15 16 17 17 18 18 19 19 20 21 21 22
7 7 7 7 6 5 5 5 4 4 5 6 7 8 8 9 9 10 11 12 13 14 14 15 16 16 17 17 18 19 19 20 20 20 20 21 22 23

GEFSNE_500_meanwind_150.txt.gz
Wind_Speed
30 30 30 30 30 30 30 30 30 30 29 29 29 29 29 29 30 30 29 28 27 27 27 26 25 25 24 25 25 24 24 25 25 24 25 25 24 24
29 29 29 29 29 30 30 30 30 29 29 29 29 29 29 29 29 29 28 28 29 28 27 26 25 25 26 25 25 25 26 26 26 24 24 24 24 24
29 28 28 28 28 29 29 29 29 29 29 29 30 30 28 28 28 28 29 28 28 27 26 26 26 26 26 26 26 25 25 25 25 25 24 23 23 23
28 28 27 27 28 28 28 28 28 29 29 28 28 29 29 28 28 28 28 28 28 27 26 25 26 26 26 26 26 26 25 24 24 23 23 23 23 23
27 27 27 27 27 27 28 27 27 27 27 27 27 28 28 28 27 27 27 27 27 27 26 26 26 26 26 26 26 25 25 25 24 24 23 23 23 22
26 26 26 26 26 26 26 27 27 26 26 26 27 26 27 27 27 27 27 26 26 26 26 25 25 25 25 25 26 26 26 25 25 25 24 24 23 23
24 24 24 24 24 25 25 25 26 25 25 26 26 26 26 26 26 27 27 26 26 25 25 25 24 25 25 25 26 26 25 25 25 24 24 24 24 24
22 22 23 23 24 24 24 24 25 25 24 25 25 25 25 26 25 25 26 26 26 26 26 25 25 25 26 26 26 25 25 24 24 23 23 24 24 23
21 21 22 22 23 23 23 23 23 24 24 25 25 25 25 25 25 25 25 25 25 26 26 25 25 25 25 25 25 25 24 24 23 23 23 23 23 23
19 20 21 21 21 22 22 22 22 23 23 23 24 24 25 25 25 24 24 25 25 25 25 25 25 24 23 23 23 23 23 23 23 23 23 23 23 23
18 19 18 18 19 19 19 20 20 20 21 21 22 23 24 24 25 25 25 24 24 24 23 23 22 22 22 22 22 22 22 22 22 22 22 22 22 22
18 17 16 17 16 16 16 16 16 17 18 18 19 21 21 22 22 23 24 24 24 24 23 23 22 22 22 22 22 22 21 21 21 21 21 21 21 21
16 14 14 14 13 13 13 13 13 14 15 16 17 18 19 20 20 21 22 22 23 23 23 22 22 22 22 22 21 21 21 21 20 20 21 21 21 21
13 13 13 13 12 11 11 11 12 12 14 15 16 16 17 17 18 19 20 21 22 22 22 22 22 21 20 19 19 20 19 19 19 19 20 20 20 20
13 13 12 12 11 11 10 10 11 12 12 13 13 13 14 15 17 18 18 19 20 20 21 21 21 20 19 19 19 19 18 18 19 19 19 19 19 19
12 12 11 11 10 10 10 9 9 10 10 10 11 12 13 14 15 15 16 17 18 18 18 19 19 19 19 18 18 18 18 17 18 18 18 19 19 18
11 11 11 10 9 9 8 8 7 7 8 9 9 10 11 12 12 13 14 15 16 17 18 18 18 19 19 19 18 18 18 17 17 17 17 17 17 17
11 10 10 9 8 8 8 7 7 7 7 8 8 8 9 10 10 11 12 13 14 15 16 16 17 17 18 18 18 17 17 17 17 17 17 17 17 18
10 10 10 9 8 8 8 8 8 8 8 8 8 8 9 9 10 10 12 13 14 15 16 17 17 17 17 17 17 17 17 17 17 18 18 18 18 18
11 10 10 9 9 9 9 9 9 9 9 8 8 9 10 10 11 11 12 12 13 14 15 16 16 16 17 17 17 17 18 18 18 19 19 19 19 19
12 11 11 10 10 10 11 11 10 10 10 10 10 11 11 12 13 13 14 14 14 15 16 16 17 17 18 18 18 18 19 19 20 20 20 20 20 20
13 13 13 12 12 12 12 12 12 12 11 11 11 12 12 13 14 14 14 15 16 16 16 17 18 19 19 20 20 19 19 20 20 21 21 22 22 22
14 14 13 13 13 13 13 13 13 12 12 12 13 13 13 14 14 14 14 15 16 17 17 18 18 19 19 20 21 21 22 22 22 22 22 23 23 24

GEFSNE_500_meanwind_156.txt.gz
Wind_Speed
27 27 27 27 27 27 28 28 29 30 30 31 32 32 33 33 32 32 32 31 31 31 31 30 31 30 30 30 30 31 31 32 31 31 30 30 29 30
25 25 25 26 27 28 28 28 29 30 30 30 31 31 32 32 32 32 31 31 31 31 31 31 31 31 31 30 30 30 30 31 32 31 31 30 30 28
23 24 25 26 26 26 27 28 28 28 28 29 30 31 31 31 31 31 31 31 31 32 31 32 32 32 32 31 31 30 29 29 30 30 29 28 28 28
23 23 24 25 25 25 27 28 27 27 27 27 28 29 30 30 30 30 31 32 32 32 32 32 32 32 32 31 31 31 30 30 31 30 29 28 28 28
22 22 22 23 24 24 25 26 26 26 26 27 28 28 28 30 30 30 31 32 32 32 33 32 32 32 32 32 31 31 30 30 31 30 30 30 29 29
21 21 21 22 23 23 23 24 25 25 26 26 26 27 27 28 28 29 29 29 30 31 31 31 31 31 31 31 31 31 30 30 31 31 31 31 31 30
21 21 21 21 21 21 22 22 23 24 25 25 26 26 26 27 27 27 28 28 28 28 29 29 30 30 31 31 31 31 31 31 31 31 31 31 31 30
18 19 19 19 19 19 20 20 21 22 23 24 25 25 26 26 27 27 27 27 27 28 29 30 30 30 31 31 31 31 31 31 31 32 32 31 30 30
17 18 18 18 19 19 18 19 19 20 22 23 24 25 26 26 26 27 27 27 27 28 28 29 29 30 30 30 31 31 31 31 31 31 32 31 31 30
17 17 17 17 17 18 18 18 18 19 20 21 23 24 25 25 25 25 26 26 26 27 28 28 29 29 29 29 29 30 30 29 29 29 30 30 31 31
16 16 17 17 17 16 16 16 16 16 17 18 20 21 23 23 24 25 25 25 25 25 26 28 28 28 29 29 29 29 29 29 28 28 28 29 29 30
15 15 16 15 15 15 15 14 14 14 14 15 17 18 19 20 22 24 24 25 26 26 26 26 27 27 27 27 27 27 27 27 27 27 27 27 27 28
15 15 15 14 14 14 13 12 13 14 14 14 15 16 17 18 20 22 23 24 24 24 25 25 26 26 27 27 27 27 27 27 26 26 26 27 27 28
14 13 13 12 12 12 12 12 12 12 13 14 14 15 16 17 19 19 20 22 23 23 23 24 25 26 26 26 26 26 26 26 26 26 26 26 27 27
14 13 12 12 12 12 12 11 11 11 12 13 14 15 16 17 18 18 19 20 21 22 22 22 23 24 25 25 26 26 26 26 25 25 26 25 26 27
13 13 12 12 12 12 12 11 11 11 12 12 13 14 14 15 15 16 17 18 20 20 21 21 22 23 23 24 24 24 25 25 25 25 25 25 25 26
13 13 12 11 11 12 12 11 11 11 11 11 11 12 12 13 13 14 15 16 17 18 20 21 21 22 22 22 23 23 24 24 24 24 24 24 24 24
14 13 12 12 12 11 11 11 10 11 11 11 11 11 12 12 13 13 14 15 16 17 18 19 20 20 21 22 23 23 24 24 24 23 23 23 23 23
15 14 13 13 12 12 12 12 12 12 11 11 11 11 12 12 13 13 14 15 15 16 17 18 19 20 21 21 22 23 24 24 24 24 24 24 24 24
16 15 14 14 13 13 13 12 12 12 12 12 12 12 12 12 13 14 14 15 16 17 18 18 19 20 20 21 21 23 24 24 25 25 25 25 25 25
16 16 15 15 14 15 15 15 15 14 14 14 14 14 14 14 14 14 15 16 16 17 18 19 19 20 21 21 22 23 24 24 25 25 26 26 26 26
17 17 16 15 15 15 16 16 16 15 15 16 16 16 16 16 16 16 16 17 17 18 19 20 22 22 23 23 24 24 25 25 25 26 27 27 27 27
18 18 17 17 17 16 16 17 17 17 17 17 18 18 18 18 17 18 18 19 20 20 21 22 23 24 24 25 25 25 26 26 27 26 26 27 28 29

GEFSNE_500_meanwind_162.txt.gz
Wind_Speed
27 27 28 28 29 29 30 30 29 28 30 31 32 33 34 33 34 34 35 35 36 36 36 37 38 37 37 36 35 35 35 34 34 35 34 34 35 35
26 26 27 27 28 28 28 29 29 29 28 30 32 33 34 34 35 34 35 35 35 36 37 36 36 37 37 38 38 37 36 36 36 35 35 35 35 35
26 26 26 26 26 26 26 27 27 27 28 29 30 31 33 34 34 35 35 35 36 35 35 36 36 36 37 38 38 37 37 36 36 35 35 36 36 35
25 25 25 25 25 25 25 25 26 26 27 28 29 31 32 33 32 33 34 34 34 35 35 36 36 37 37 36 37 37 37 37 36 36 35 35 36 36
23 23 24 24 25 24 24 24 24 25 25 25 26 29 30 31 32 32 32 32 33 34 34 35 35 36 37 37 38 37 37 36 36 36 35 35 35 35
21 21 22 23 23 23 23 23 23 24 24 24 24 26 28 30 30 30 31 32 32 33 33 34 34 34 36 36 36 37 36 36 36 37 36 35 35 35
19 20 20 21 22 23 23 22 22 22 23 23 24 24 26 27 28 29 30 30 31 32 32 32 33 33 33 33 33 34 35 36 36 36 36 35 35 36
19 19 19 20 20 21 21 22 22 22 23 23 23 24 24 25 27 28 29 30 30 31 31 32 32 32 32 32 33 33 34 34 35 35 36 36 36 36
19 19 19 20 20 20 20 20 21 21 22 22 23 23 24 24 26 26 27 28 29 29 31 32 32 32 32 32 33 32 32 33 34 35 36 36 35 35
19 20 20 20 20 20 19 19 19 20 21 21 21 21 22 23 24 25 25 26 27 28 29 29 30 31 31 31 32 31 31 31 31 32 33 34 34 34
19 20 20 20 20 20 20 19 19 18 18 19 19 19 19 20 21 22 22 23 25 26 26 27 28 29 30 30 31 31 31 30 30 31 31 31 32 32
19 19 19 19 19 20 19 19 18 17 17 17 17 17 18 18 20 20 21 22 23 24 25 25 26 27 28 29 30 31 30 31 30 30 30 30 31 32
18 18 18 18 18 17 16 16 16 16 16 16 16 16 17 18 18 19 19 21 22 23 24 25 25 26 26 27 28 29 30 30 30 30 30 31 31 31
17 17 17 17 16 15 15 15 15 16 16 17 17 17 17 18 18 18 19 20 21 22 23 24 25 25 25 26 27 27 27 28 29 29 29 29 30 31
16 17 17 16 16 15 15 15 15 15 16 16 16 17 17 17 18 19 19 19 20 22 22 24 24 25 25 25 26 26 27 28 29 29 29 29 29 30
18 17 16 15 16 16 16 16 15 14 14 15 15 15 16 16 17 17 18 19 19 20 21 21 23 24 24 24 25 25 26 26 27 28 28 28 28 29
17 18 17 16 16 17 17 16 15 15 15 15 16 16 16 16 16 17 17 18 19 19 20 21 21 22 23 24 24 24 25 25 26 27 27 27 27 27
18 18 18 17 16 16 17 16 16 16 16 16 16 17 16 16 17 17 17 17 18 19 20 21 21 22 22 23 23 24 24 24 25 25 26 25 26 27
19 19 19 18 17 17 17 17 17 17 17 17 17 17 17 16 17 17 18 18 19 19 19 19 20 21 21 22 22 23 24 24 25 25 26 26 26 26
20 20 20 20 19 19 19 18 18 17 18 18 18 18 18 18 18 18 19 18 18 19 19 19 20 21 21 21 21 23 24 24 24 25 25 26 26 26
21 21 21 21 20 21 20 20 19 18 18 19 19 19 19 19 19 19 19 18 19 19 19 20 21 22 22 22 23 23 24 25 25 25 25 25 26 26
22 23 22 22 22 21 20 20 21 20 19 20 20 21 21 20 21 20 20 19 19 19 20 21 22 23 23 23 24 25 25 26 26 26 26 26 26 26
24 24 24 24 23 22 22 22 22 22 22 22 22 22 22 21 22 22 21 21 21 21 21 21 21 22 22 23 24 25 26 26 26 27 27 27 28 27

GEFSNE_500_meanwind_168.txt.gz
Wind_Speed
27 27 27 28 28 28 28 28 28 28 29 30 30 31 32 33 34 35 36 37 37 38 38 39 40 40 41 41 40 41 41 40 39 38 37 37 37 35
24 25 25 26 26 26 26 27 27 28 28 28 28 30 31 32 33 34 35 36 37 37 37 38 38 40 41 41 41 41 41 40 40 39 38 38 38 37
24 24 24 25 25 25 26 26 27 27 28 28 28 29 29 30 31 32 34 35 36 36 36 36 37 38 39 40 40 41 41 41 40 39 39 39 38 38
24 24 22 22 23 24 24 25 25 26 27 27 27 28 29 30 30 31 32 32 33 33 34 35 36 37 38 38 39 39 39 39 39 40 40 39 39 38
22 22 21 20 21 22 23 23 23 24 25 26 26 27 27 28 28 29 29 29 30 31 33 34 35 36 37 38 38 39 39 39 39 39 40 40 40 40
21 21 20 20 19 20 21 21 22 23 24 25 26 25 26 27 27 28 28 28 29 30 31 32 34 35 36 37 38 38 39 39 39 40 40 40 40 39
20 20 20 20 20 20 21 21 22 22 23 24 24 24 24 25 26 26 27 27 29 29 30 30 31 32 34 35 36 37 38 39 39 39 40 39 39 38
19 19 20 20 20 21 21 21 22 22 22 22 23 23 23 23 24 25 26 27 27 28 29 29 30 30 32 33 33 34 35 36 37 37 37 37 37 37
18 19 19 20 20 20 20 21 21 21 21 22 22 22 22 22 23 23 24 26 26 27 27 27 29 29 30 31 31 32 33 34 35 35 36 36 36 36
17 18 18 19 19 20 19 19 19 20 20 20 20 20 20 20 21 21 22 23 24 25 25 26 27 28 29 30 31 31 32 33 33 34 34 34 35 36
17 17 18 18 18 18 18 18 18 19 19 19 19 19 19 20 21 21 21 22 23 24 24 25 26 27 29 30 31 31 31 32 33 33 33 33 33 34
18 18 17 17 17 18 18 18 18 18 18 18 18 19 20 20 21 21 21 22 23 23 24 26 26 27 28 30 31 31 31 31 32 32 32 33 33 33
18 18 18 18 18 17 17 18 18 17 17 18 18 19 19 20 20 20 21 22 22 23 23 25 26 26 27 28 30 31 31 31 31 32 32 32 33 33
18 18 18 17 17 18 17 17 18 18 18 17 17 18 19 20 20 20 21 22 23 23 24 24 25 26 26 27 28 29 30 31 31 31 31 32 32 32
19 19 18 17 17 17 17 17 17 17 17 17 17 18 18 18 19 20 20 20 21 23 24 24 25 25 25 26 27 27 28 29 30 30 31 32 32 32
19 19 19 18 18 18 18 17 17 17 17 17 17 17 17 17 18 18 19 19 20 21 21 23 24 25 25 25 26 27 27 28 29 30 30 31 32 32
20 20 20 19 19 19 19 18 19 18 17 17 18 18 18 18 17 18 19 20 20 21 21 22 23 24 25 26 26 27 27 28 28 29 29 30 31 32
20 20 20 20 19 19 18 19 19 19 19 18 18 18 19 19 19 19 20 20 21 22 22 22 23 23 24 25 26 27 28 28 28 29 29 29 30 31
21 21 20 20 20 19 19 19 19 19 19 19 18 18 19 19 19 20 20 21 21 21 22 23 23 23 23 23 25 26 26 27 28 28 29 29 30 30
22 22 21 21 21 20 20 20 20 20 20 20 19 19 20 20 20 20 21 21 22 22 22 22 23 23 23 23 24 25 25 25 26 27 28 29 29 29
23 22 22 22 22 22 22 22 22 22 22 22 22 21 21 21 21 21 22 21 22 22 22 22 23 23 23 24 24 25 25 25 25 26 26 27 27 27
23 23 23 22 23 23 23 23 23 24 24 23 23 23 22 22 22 23 23 22 22 22 21 21 22 23 24 24 24 24 24 25 25 24 24 25 26 27
24 24 24 24 24 23 24 24 25 25 24 23 23 23 22 23 23 23 23 22 22 21 21 21 22 22 22 22 23 23 23 24 24 25 25 25 25 26

GEFSNE_500_meanwind_174.txt.gz
Wind_Speed
28 28 29 29 29 29 29 29 28 27 28 28 28 29 29 29 30 31 31 32 33 34 36 37 38 39 41 41 41 40 40 40 39 39 39 39 39 39
26 27 27 27 27 28 28 27 27 27 25 26 26 27 28 28 29 30 30 31 32 33 35 36 37 38 39 41 41 41 40 39 39 39 40 40 40 41
26 26 26 27 26 27 27 26 26 25 25 25 26 26 26 27 27 28 29 31 32 32 33 34 35 36 37 37 38 40 41 40 39 39 40 40 40 39
26 26 26 26 25 25 25 24 24 24 24 23 24 25 25 25 25 26 28 29 30 30 31 32 33 34 35 35 36 37 38 39 39 39 39 38 38 39
25 26 25 24 24 23 23 23 23 24 24 24 23 24 24 24 25 26 26 27 27 28 28 28 29 31 33 34 35 35 36 37 37 37 37 38 38 38
25 24 23 23 23 22 23 23 23 23 24 24 24 24 24 24 24 25 24 24 25 26 26 26 26 27 30 32 34 35 35 35 36 35 36 37 37 38
23 22 21 20 20 21 22 22 23 23 24 25 25 25 24 24 23 24 24 23 23 24 25 26 25 26 27 29 31 33 33 33 34 35 35 35 36 37
21 20 20 20 20 21 22 21 22 22 22 23 23 23 23 24 24 24 24 23 23 24 24 25 25 25 26 27 28 30 31 32 33 33 34 35 36 37
20 20 20 20 20 20 20 20 21 21 23 23 22 22 22 22 23 23 23 23 23 24 24 24 26 26 25 26 28 29 30 30 32 33 33 34 35 37
21 20 20 20 20 20 19 19 19 20 21 21 21 21 22 22 22 22 23 23 23 24 23 23 24 25 25 25 26 28 30 31 32 34 34 35 35 36
20 20 20 20 20 19 19 19 20 20 20 21 21 21 21 21 21 21 21 21 21 22 24 24 24 25 25 25 27 28 29 31 32 33 34 35 35 35
20 20 20 19 19 19 20 20 20 21 21 21 21 21 21 21 21 22 21 21 21 21 22 23 23 24 24 24 26 27 29 30 31 32 33 34 34 35
20 20 20 19 19 20 20 20 20 21 21 21 20 21 21 21 21 22 21 21 20 20 21 22 23 23 23 23 24 26 28 29 30 30 32 33 33 33
20 20 20 20 20 20 20 21 21 21 21 21 20 20 20 20 21 21 21 21 21 21 21 22 23 23 23 24 24 25 26 28 29 29 31 32 33 33
21 21 21 21 21 21 21 21 21 21 21 21 20 20 21 20 20 21 21 21 21 21 20 21 22 23 24 25 25 26 27 27 28 29 30 31 32 32
22 22 22 22 22 22 22 22 21 21 20 21 20 21 21 21 21 21 21 21 21 22 22 23 23 24 24 24 25 26 27 28 28 28 29 29 30 30
23 23 23 23 23 23 23 23 22 22 22 22 21 20 20 21 21 21 21 21 21 21 22 22 23 24 24 24 25 26 26 27 27 27 28 28 28 29
25 25 24 24 23 23 23 23 24 23 23 22 21 21 21 21 21 21 21 21 21 21 22 23 23 24 24 24 25 25 26 26 26 27 28 28 28 29
26 25 25 24 24 24 24 25 25 24 24 23 22 22 22 21 21 21 21 21 21 21 22 22 23 24 24 24 25 25 25 26 26 27 27 27 28 29
26 25 24 25 26 25 24 25 25 25 24 23 22 22 22 21 21 21 21 21 21 21 22 23 23 24 24 24 24 24 25 26 26 27 27 26 27 27
26 26 25 26 27 27 26 25 25 25 24 23 22 21 21 21 21 21 22 22 22 21 21 22 23 23 24 24 24 23 23 24 25 26 27 27 27 27
27 27 27 27 27 27 27 26 25 25 24 22 22 21 21 21 21 21 21 22 21 22 22 21 21 22 22 22 23 23 22 23 24 25 26 26 27 27
29 28 28 27 26 26 26 26 26 25 24 23 23 22 22 22 22 21 21 22 21 22 21 21 21 21 21 21 22 22 22 22 22 23 25 25 25 26

GEFSNE_500_meanwind_180.txt.gz
Wind_Speed
25 25 26 27 27 27 27 27 27 28 28 29 30 29 29 30 30 31 32 33 33 34 34 35 36 37 39 40 40 40 41 42 42 43 43 42 43 43
24 24 25 26 26 26 27 27 27 28 28 29 30 30 30 30 30 30 30 32 33 34 33 34 35 36 38 38 39 40 41 42 43 43 44 44 43 43
24 24 25 25 25 25 26 26 27 27 27 27 29 29 29 29 29 30 30 31 33 34 33 33 34 36 37 38 39 40 41 42 43 44 44 44 45 44
24 24 25 25 25 24 24 25 25 26 25 25 26 27 28 29 29 29 30 31 32 33 33 33 33 35 36 37 38 39 41 42 43 44 44 45 45 45
24 24 24 24 24 24 24 24 24 24 24 24 25 26 26 27 28 28 29 30 31 32 33 34 34 34 36 37 38 39 40 41 42 43 44 45 45 45
23 23 23 22 22 22 23 23 23 23 24 24 24 25 25 26 26 27 27 28 29 30 31 32 33 33 34 36 37 37 38 40 41 42 43 44 44 45
21 21 21 21 21 21 21 22 23 23 23 24 23 24 25 25 26 26 27 27 28 29 30 30 32 33 33 34 35 36 37 38 40 41 42 43 43 43
20 20 20 20 20 20 21 22 22 22 22 22 23 24 24 25 26 26 27 27 27 27 28 29 30 31 31 32 32 34 34 35 37 39 40 41 41 41
20 20 20 20 19 20 21 21 21 21 22 22 22 23 24 24 25 25 25 27 27 27 27 27 28 28 29 30 30 31 32 33 34 36 38 40 41 41
21 21 20 20 20 20 20 21 21 21 22 22 23 23 23 23 24 25 25 26 26 26 27 26 27 27 28 29 29 30 31 32 33 35 37 39 40 41
21 21 20 20 20 20 21 21 21 21 22 22 23 23 23 23 24 24 24 24 24 26 27 27 26 27 27 27 28 29 30 31 32 33 35 38 39 40
22 22 21 21 21 21 21 21 20 20 21 21 22 23 22 22 23 23 24 24 23 23 25 26 26 27 27 27 28 29 29 31 32 33 34 36 38 38
22 22 22 21 21 22 22 21 21 21 21 22 22 21 21 21 22 23 24 23 23 23 24 25 25 26 26 26 27 28 29 30 31 32 34 35 35 36
23 22 22 22 23 22 22 22 22 22 22 21 21 20 21 21 21 22 23 24 24 24 24 24 24 24 25 26 26 27 28 29 30 31 32 34 35 35
23 23 23 24 24 23 23 22 22 22 22 22 21 21 21 21 21 22 23 23 23 23 23 24 24 25 25 25 26 27 27 29 30 30 31 32 33 35
26 26 26 26 25 25 24 23 23 23 22 22 22 22 22 22 22 22 21 21 22 22 23 23 24 24 25 25 26 26 26 27 29 29 30 31 31 32
27 26 26 26 25 24 24 24 23 23 23 23 23 22 22 21 21 20 20 20 21 22 22 22 22 22 23 24 24 25 26 27 28 29 29 30 31 32
27 27 26 26 25 24 23 23 22 22 22 22 22 21 20 19 19 19 19 19 20 21 22 22 23 23 23 23 24 24 25 26 26 27 29 30 30 31
28 28 28 27 26 25 24 24 23 23 22 21 21 20 20 19 18 19 19 19 19 20 20 21 21 22 23 23 23 23 24 25 25 26 27 28 29 30
28 29 29 27 26 25 25 24 24 23 23 22 21 21 21 20 19 19 19 20 20 20 20 20 20 21 21 21 22 22 23 24 24 25 27 28 29 29
29 29 28 27 26 25 25 25 24 23 23 22 22 21 21 21 21 21 20 20 20 20 20 19 19 20 20 20 21 22 22 22 23 24 25 26 27 28
29 29 28 27 26 26 26 26 25 24 23 23 22 21 21 21 21 21 20 20 19 19 19 18 18 18 19 19 20 20 21 21 21 22 22 23 24 25
30 29 28 28 27 27 26 27 26 25 24 23 23 22 22 20 20 20 20 19 19 19 18 17 17 17 17 18 18 19 20 20 20 20 21 22 22 23

GEFSNE_500_meanwind_186.txt.gz
Wind_Speed
25 26 27 27 28 28 29 30 31 31 32 33 34 34 34 35 35 35 35 36 37 37 38 38 39 40 41 41 41 41 40 40 41 42 43 44 44 44
25 26 27 27 27 28 29 29 30 31 31 32 33 34 35 35 35 35 36 36 37 37 38 38 39 39 40 40 40 40 40 41 41 42 43 44 44 44
24 25 26 26 27 27 28 28 28 29 29 30 31 32 34 34 34 34 35 36 36 36 36 38 39 39 40 40 40 41 41 41 42 43 43 44 44 44
24 24 24 25 25 26 26 27 27 27 27 27 28 29 30 32 33 33 34 34 34 35 36 36 37 38 39 40 41 40 40 41 42 43 43 44 45 45
23 24 24 24 24 25 25 26 25 26 26 26 26 27 28 30 31 32 32 32 33 34 34 35 35 36 37 38 39 39 39 40 41 42 43 44 45 45
23 24 24 23 23 23 24 24 24 24 24 25 25 26 27 28 29 30 31 31 31 32 33 34 35 36 37 37 37 38 39 40 41 41 42 44 45 45
23 23 23 23 24 24 24 24 23 24 25 25 26 26 26 28 28 28 29 30 31 32 32 33 34 35 37 37 37 37 38 39 40 40 41 42 44 45
23 23 23 23 23 23 23 23 24 24 25 25 25 26 27 27 27 27 28 29 30 32 33 33 35 34 35 36 37 38 38 38 39 39 40 40 41 43
23 22 22 22 23 23 23 23 24 24 24 25 25 25 26 26 26 27 27 28 29 31 33 33 35 35 35 35 37 37 37 37 38 38 38 39 40 42
23 23 22 23 23 23 23 23 23 23 23 24 24 24 25 25 25 26 27 28 28 30 31 32 34 35 36 36 36 36 36 36 37 38 39 39 39 40
24 24 23 23 24 24 24 24 23 23 23 23 24 24 25 25 25 26 26 26 27 28 29 30 31 33 34 35 35 35 36 36 36 37 37 38 38 39
25 24 24 25 25 25 25 24 24 23 23 22 22 23 24 24 25 25 25 25 25 26 27 29 30 31 32 33 35 35 35 36 36 36 36 36 37 37
25 25 25 26 26 26 26 25 24 23 22 22 22 22 23 23 23 24 24 25 25 26 27 28 29 30 31 31 32 33 34 34 35 35 35 36 36 37
25 26 27 27 27 27 26 26 25 24 23 22 22 23 23 24 24 24 24 24 24 25 26 26 27 28 28 29 29 30 32 32 33 33 34 35 36 37
27 27 28 28 27 27 26 26 25 23 22 22 22 23 23 23 23 23 22 22 23 23 24 24 24 24 25 26 27 29 30 31 31 32 33 34 35 35
27 27 27 27 26 26 26 25 24 23 22 22 22 22 22 21 20 21 22 22 22 23 23 22 23 23 22 22 24 27 29 30 30 31 31 32 34 35
27 27 27 26 25 25 25 24 24 23 21 21 20 20 20 20 20 21 21 21 21 21 21 22 22 22 22 22 22 23 25 27 29 30 31 31 32 32
28 28 28 27 26 25 25 24 23 23 22 21 20 20 20 21 20 20 19 19 20 20 19 20 20 21 21 21 22 23 23 24 26 27 28 29 30 30
29 29 28 27 27 26 25 24 23 23 22 21 21 21 21 20 19 19 19 18 18 18 18 19 19 19 19 19 20 21 21 22 23 24 25 27 27 28
30 30 29 28 27 27 26 25 24 23 23 22 22 21 21 20 20 19 19 18 18 18 18 18 17 17 17 16 17 17 18 19 21 22 23 24 25 26
31 31 30 29 27 27 26 25 24 24 24 23 23 22 21 20 20 19 18 18 18 18 17 16 15 15 15 15 15 16 16 17 18 20 22 23 23 24
31 32 31 29 28 26 26 26 25 25 24 24 24 23 22 20 19 18 18 17 17 16 16 15 14 14 14 14 14 15 16 16 17 19 20 21 21 22
32 32 32 30 29 27 26 26 26 25 25 24 24 23 22 20 19 18 18 17 16 15 14 15 14 14 13 13 14 14 15 15 16 17 17 18 20 21

GEFSNE_500_meanwind_192.txt.gz
Wind_Speed
25 25 26 26 27 27 27 29 29 30 31 33 34 34 34 34 35 37 38 38 38 39 40 40 41 41 41 42 42 42 41 41 41 42 43 43 42 42
25 25 25 25 26 27 27 28 28 29 30 32 33 34 35 36 36 36 37 37 37 38 38 39 40 41 42 42 42 43 43 42 42 43 43 43 43 43
24 24 24 24 25 26 26 27 28 29 30 31 32 33 34 35 36 35 35 36 37 37 38 38 39 40 41 41 42 42 43 43 43 43 43 44 44 44
23 23 23 24 25 25 26 28 28 28 29 29 30 31 32 32 33 35 36 36 37 37 38 38 38 38 39 40 41 41 42 43 43 43 43 44 43 43
22 22 23 24 25 26 26 27 26 26 27 28 29 30 30 31 32 32 33 34 36 36 37 37 37 38 38 39 40 41 41 42 43 43 43 43 43 43
22 22 23 24 25 26 26 25 25 25 26 27 27 27 28 29 30 31 31 32 33 34 36 36 36 37 38 38 39 40 41 42 42 43 43 44 44 43
22 22 23 23 24 25 26 26 26 25 25 25 25 25 25 27 28 29 29 30 31 32 33 34 35 36 37 38 39 39 40 41 42 43 44 45 45 45
22 22 22 22 24 24 25 25 25 25 25 24 25 25 25 25 25 27 28 29 30 31 32 32 34 35 37 37 38 39 40 41 42 43 44 45 45 46
21 21 21 22 23 24 25 25 25 25 25 25 25 25 25 25 25 26 27 28 28 29 30 31 33 34 35 36 38 39 41 42 43 43 44 44 45 46
21 22 22 23 24 24 25 25 25 25 25 24 24 25 25 25 25 25 25 26 27 28 29 30 32 34 35 37 38 39 40 41 41 42 43 44 44 44
21 22 22 23 24 24 25 25 25 25 25 25 25 24 24 24 24 24 24 24 25 26 27 30 32 34 35 37 38 38 39 40 41 41 42 43 44 45
22 23 23 24 24 25 25 25 24 24 24 24 24 24 24 24 24 25 25 26 26 26 26 27 29 31 33 34 36 37 38 39 39 39 40 41 42 43
23 24 24 24 25 25 24 25 25 24 23 23 23 22 22 22 23 23 23 24 25 26 26 27 28 29 31 32 33 34 36 38 39 39 38 39 40 41
23 23 24 24 24 24 24 24 24 23 23 22 21 20 20 20 21 22 22 22 22 23 24 25 26 27 28 30 30 31 33 35 36 37 38 38 39 39
23 23 23 23 24 24 24 23 23 23 22 21 20 19 19 19 20 20 20 21 21 22 22 23 24 25 26 27 29 30 31 32 33 34 36 38 39 39
24 24 24 23 24 24 24 24 23 21 21 20 19 18 18 18 19 19 19 20 21 21 22 23 23 24 24 25 26 27 28 29 30 32 32 33 35 36
24 24 24 23 24 24 24 23 22 21 20 19 18 18 18 18 18 18 19 19 20 20 19 20 21 22 22 23 23 24 25 27 28 29 30 31 32 33
24 24 23 23 24 24 25 24 23 21 20 20 19 18 18 18 18 18 19 19 18 18 18 19 19 19 19 20 20 21 21 22 24 26 27 27 28 30
24 24 24 24 24 24 25 25 23 22 20 19 19 19 19 19 19 19 19 18 18 17 17 18 18 18 18 17 17 17 18 19 19 21 22 24 26 27
24 25 25 25 25 25 25 25 24 22 20 19 19 19 19 19 19 20 19 18 18 17 17 17 17 17 16 16 16 17 17 18 18 19 20 21 22 24
24 25 26 26 26 26 26 25 24 22 21 20 19 19 19 19 20 20 19 18 18 17 16 15 15 15 15 16 16 16 17 17 17 18 19 20 21 22
25 25 26 26 27 27 27 26 24 22 21 20 20 20 19 19 19 19 18 17 17 16 15 14 14 14 13 14 14 15 15 15 16 17 18 19 20 21
26 26 26 27 28 28 28 27 25 23 22 21 21 20 20 20 20 19 18 17 16 15 14 13 13 12 12 12 12 13 14 15 16 17 18 19 20 21

GEFSNE_500_meanwind_198.txt.gz
Wind_Speed
26 26 26 26 26 25 25 25 26 26 27 28 29 29 30 30 32 33 33 33 34 35 35 36 37 37 39 39 40 40 41 41 41 40 40 41 41 41
24 24 24 24 25 25 25 26 27 27 28 28 28 29 30 30 31 32 34 33 33 34 35 35 36 37 38 39 39 40 40 42 42 42 42 42 42 42
22 22 23 23 24 25 25 26 26 28 28 28 28 28 28 29 30 31 33 33 33 34 35 36 36 37 37 38 39 40 40 41 42 43 43 43 43 43
22 21 21 22 22 23 24 25 25 27 28 27 27 28 28 28 29 30 31 32 32 33 34 36 37 37 38 38 38 39 40 41 41 42 42 43 44 43
21 21 21 21 22 23 23 23 23 25 26 26 26 26 27 27 28 30 30 31 32 32 33 35 37 37 38 38 39 39 39 40 41 42 42 42 43 44
20 21 21 21 22 22 22 23 23 24 25 25 24 24 24 25 27 28 28 28 30 31 32 33 34 35 36 37 38 38 38 39 40 41 43 43 43 44
21 21 21 21 21 21 22 22 23 24 25 25 24 25 24 24 25 26 27 27 28 29 30 30 30 32 33 34 36 38 38 39 40 41 42 43 43 44
20 20 21 20 21 21 22 22 23 24 24 24 23 24 24 24 25 26 26 26 27 28 29 29 29 30 31 32 34 36 37 38 39 40 42 43 44 44
21 21 21 20 21 22 22 23 24 24 25 24 24 24 24 24 24 24 25 26 26 27 29 30 30 30 31 31 32 34 36 38 39 39 40 41 43 44
22 21 21 21 22 23 23 23 25 25 24 24 23 22 23 23 24 24 25 26 26 27 28 30 31 32 33 33 33 33 34 36 38 40 41 41 42 44
22 22 23 23 23 24 24 24 25 24 24 23 22 23 23 24 24 24 24 25 25 26 27 29 30 31 32 32 34 35 35 36 37 39 40 41 42 43
23 23 23 24 24 24 25 25 25 24 23 23 23 23 23 23 23 23 24 24 24 24 26 27 29 30 29 30 32 33 34 35 36 37 39 40 41 42
24 24 23 24 25 25 25 25 24 23 23 22 22 22 22 21 21 21 23 23 24 24 25 26 27 27 27 27 28 29 31 32 34 35 37 37 38 39
24 24 24 24 25 25 25 25 24 24 23 22 21 21 21 20 20 19 20 21 22 23 24 25 25 26 26 27 27 28 29 30 31 32 34 35 36 37
25 25 25 25 26 26 25 25 24 24 23 22 21 21 21 20 20 20 20 21 22 22 23 23 23 24 24 26 27 28 29 29 30 31 31 32 34 35
26 25 25 25 25 25 25 25 24 24 23 22 22 21 21 21 21 21 21 21 22 22 22 21 22 23 23 24 25 25 26 27 28 29 30 30 31 33
26 26 25 25 24 25 25 25 24 24 23 22 21 20 20 21 20 21 21 21 21 21 20 20 21 21 23 23 24 24 25 25 26 27 28 29 29 30
26 26 25 25 25 25 25 25 25 25 24 23 22 21 21 20 20 20 20 20 20 19 19 18 19 19 19 21 22 22 23 24 25 26 26 27 27 28
26 25 25 25 25 25 26 26 26 26 25 23 22 21 20 20 20 20 19 19 20 19 18 18 18 18 18 18 19 20 21 21 23 24 25 26 26 27
26 26 25 26 26 26 26 27 27 26 25 24 23 21 21 20 20 20 20 19 19 19 19 18 18 18 17 16 16 17 18 18 19 21 22 23 24 25
27 26 26 26 26 27 27 27 28 27 26 25 23 22 21 21 21 21 20 19 19 18 19 18 17 17 16 14 13 14 15 16 16 17 18 20 21 22
28 27 26 27 27 27 28 28 28 28 27 26 24 23 22 22 21 20 19 19 18 18 18 17 16 15 14 12 11 11 11 12 14 15 16 17 18 19
28 28 27 27 28 28 29 29 28 28 28 27 25 24 23 22 21 20 19 19 19 18 17 16 15 14 13 12 11 11 11 11 12 13 13 14 15 16

GEFSNE_500_meanwind_204.txt.gz
Wind_Speed
23 22 22 23 23 24 24 24 25 24 25 26 27 28 29 30 30 30 31 32 33 34 36 38 39 39 40 40 41 41 42 42 42 42 42 42 43 43
22 21 22 22 22 23 23 23 24 24 24 25 25 26 28 29 30 29 30 30 32 33 35 36 37 39 40 40 41 41 41 43 43 42 42 43 42 42
20 20 21 21 22 22 21 21 22 22 22 23 24 25 27 28 27 27 27 28 30 31 33 35 36 38 39 41 41 41 41 42 43 43 43 44 43 44
20 20 21 21 21 21 20 21 21 21 22 22 23 25 25 26 25 26 27 28 29 30 31 32 33 36 38 39 40 41 41 42 43 45 45 44 44 45
19 20 20 20 20 20 20 20 20 21 21 21 22 24 24 24 24 26 27 28 28 29 30 31 32 33 36 37 38 39 40 41 42 44 44 45 45 45
18 19 20 20 20 20 19 19 19 20 20 21 21 22 22 23 23 25 26 26 27 29 30 30 31 32 34 36 37 39 40 42 42 44 45 45 46 46
19 20 20 20 20 19 18 18 19 19 19 20 20 20 21 22 22 24 25 26 27 29 30 30 31 32 34 35 37 39 39 41 42 44 45 45 46 46
20 20 20 20 20 19 18 18 18 19 19 20 21 21 22 22 23 23 24 25 25 26 27 28 29 31 33 35 36 37 38 39 41 43 44 44 45 46
20 21 20 19 19 18 18 18 18 18 19 20 21 22 22 23 23 23 24 24 25 26 28 28 29 29 31 33 35 37 38 38 40 41 42 43 44 45
21 21 21 20 19 19 18 19 18 18 20 21 21 21 21 21 22 23 24 24 25 27 29 29 29 29 29 32 34 36 37 38 40 41 42 43 44 45
21 21 21 22 21 20 20 20 19 19 20 21 21 21 21 22 23 23 24 24 25 26 27 28 28 29 30 30 33 35 37 38 39 40 42 43 44 45
21 22 22 22 21 21 20 20 19 19 20 21 21 22 23 23 24 24 24 24 25 26 26 27 28 29 30 30 31 33 35 36 38 39 42 43 44 45
22 22 22 22 21 21 21 20 20 20 20 21 22 22 23 23 24 24 24 24 25 26 26 26 27 28 30 30 31 32 33 35 37 38 39 40 42 43
22 23 22 22 22 22 22 22 21 21 21 21 22 22 22 23 23 23 24 23 24 25 25 25 26 27 28 28 29 30 30 31 33 35 37 38 40 41
23 23 23 22 22 23 23 23 23 22 22 22 23 23 23 22 23 23 23 23 23 23 23 24 24 25 25 26 27 28 29 29 31 32 34 36 38 39
23 23 23 23 23 24 24 24 24 23 23 23 23 23 22 22 22 22 22 21 21 21 22 23 23 23 23 23 24 26 27 28 29 30 32 34 35 36
23 23 24 24 24 24 24 25 25 25 24 23 23 22 21 20 21 21 20 20 20 20 21 22 22 22 21 21 22 23 25 27 27 28 29 29 30 32
23 24 24 25 25 25 25 26 25 25 24 23 23 22 21 20 20 20 20 20 19 19 19 19 20 20 20 20 20 20 21 22 24 25 27 27 28 29
24 25 25 26 26 26 26 26 25 25 25 25 24 23 22 21 21 20 20 20 19 19 18 18 18 18 18 17 18 19 19 19 21 23 24 25 26 26
25 25 26 27 27 26 26 26 26 26 25 25 24 23 22 21 21 21 20 19 18 18 17 17 17 16 16 16 17 18 19 19 20 21 21 22 23 24
25 26 27 27 27 26 26 26 26 26 25 25 25 24 23 21 21 20 19 19 18 18 17 17 16 16 15 15 16 16 17 18 19 20 20 21 22 23
25 27 27 27 27 27 27 27 26 25 25 25 25 24 23 22 21 20 19 18 17 16 15 15 15 15 14 14 14 14 15 16 17 18 19 20 20 20
26 27 27 27 27 27 28 27 27 26 26 25 25 24 23 22 21 20 19 18 17 16 14 14 14 14 13 13 12 12 13 13 13 14 15 16 17 18